User: anonymous   Login
Location: Ajisawe
(8.4333°N, 4.3833°E)
Time: 12:03:43
(UTC+00:00)
Language:

STARLINK-1146 - Orbit

View from above orbital plane
View from above orbital plane
View from above satellite
View from above satellite

Ground track
Ground track

The orbit data is extracted from the following two-line orbital elements,

1 45094C 20006BC  20227.12200801  .00000404  00000-0  27654-4 0  2277
2 45094  53.0022  15.6374 0001440 110.1916 173.9931 15.05598112    11
Epoch (UTC): 14 August 2020 02:55:41
Eccentricity: 0.0001440
inclination: 53.0022°
perigee height: 548 km
apogee height: 550 km
right ascension of ascending node: 15.6374°
argument of perigee: 110.1916°
revolutions per day: 15.05598112
mean anomaly at epoch: 173.9931°
orbit number at epoch: 1

The dashed part of the orbit path shows where the satellite is in the earth's shadow,  

DLR